Starlink 31946

operational
NORAD ID: 59940 Int'l Des: 2024-106 Owner: SPXS Country: US Constellation: starlink
LEOCIRCULAR

Starlink 31946について

説明を読み込み中...

リアルタイム位置

3D地球を読み込み中...

次回通過

高度履歴

Altitude vs Time

uPlot chart will show altitude changes over time

軌道要素

1 59940U 24106U 25304.52100848 .00001052 00000-0 47726-4 0 9990
2 59940 43.0011 342.3834 0000694 246.0835 113.9944 15.27581374 71396
Epoch: Oct 31, 2025 • Age: 12 hours

現在のステータス

高度 482.1 km
速度 7.63 km/s
衛星直下点 5.79°N, 109.33°E
打ち上げ日 Jun 1, 2024
運用期間 1.4 years
タイプ internet

技術仕様

分類 Payload
質量 730.00 kg
乾燥質量 700.00 kg
総質量 730.00 kg
長さ 0.30 m
直径 4.10 m
スパン 29.00 m
形状 Box + pan
製造者 SPXS
バスタイプ Starlink V2M
フェーズステータス In Orbit
所有者/国 SPXS/US

大規模コンステレーション

Loading constellations...